Regional Weather Roundup
Issued by NWS

Home | Current Version | Previous Version | Graphics & Text | Print | Product List | Glossary Off
Versions: 1 2 3 4 5 6 7 8 9 10 11 12 13 14 15 16 17 18 19 20 21 22 23 24 25 26 27 28 29 30 31 32 33 34 35 36 37 38 39 40 41 42 43 44 45 46 47 48 49 50

000
ASUS43 KDMX 210806
RWRIA

WEATHER ROUNDUP FOR IOWA
NATIONAL WEATHER SERVICE DES MOINES IA
300 AM CDT MON AUG 21 2017

NOTE: "FAIR" INDICATES FEW OR NO CLOUDS BELOW 12,000 FEET WITH NO
SIGNIFICANT WEATHER AND/OR OBSTRUCTIONS TO VISIBILITY.

* - THESE STATIONS ARE NOT NWS STATIONS...THUS NOT UNDER NWS
QUALITY CONTROL.  THEY ALSO DO NOT REPORT WEATHER SUCH
AS PRECIPITATION OR FOG.

IAZ001>003-012>014-020>022-031>034-043>046-210900-
   NORTHWEST IOWA

CITY           SKY/WX    TMP DP  RH WIND       PRES   REMARKS
CARROLL *      CLOUDY    68  68 100 N6        30.04R
CHEROKEE *     TSTM      68  68  99 SE10G18   29.97F
LE MARS *      LGT RAIN 104 N/A N/A CALM      29.97R
ORANGE CITY *  CLOUDY    72  70  94 CALM      29.99R
SHELDON *      CLOUDY    68  66  94 E8        29.98S
SIOUX CITY     CLOUDY    69  68  96 SE13      29.98R
SPENCER        CLOUDY    69  67  93 E8        30.01F
STORM LAKE *   CLOUDY    68  66  94 S17G24    30.01R
$$

IAZ055>058-069>071-079>083-090>094-210900-
   SOUTHWEST IOWA

CITY           SKY/WX    TMP DP  RH WIND       PRES   REMARKS
AUDUBON *      LGT RAIN  66  63  88 E13G18    30.06R
CLARINDA *     CLEAR     70  70 100 CALM      29.99S
COUNCIL BLFS * CLOUDY    66  66 100 NE18G31   30.02R
CRESTON *      CLOUDY    70  68  94 SE8       30.01R
HARLAN  *      LGT RAIN  66  66 100 N7        30.08R
LAMONI         CLOUDY    70  66  87 VRB5      29.99F
RED OAK *      CLOUDY    70  64  83 NE17G25   30.02R
SHENANDOAH *   PTCLDY    72  70  94 E5        29.97R
$$

IAZ047>049-059>061-072>074-084-210900-
   CENTRAL IOWA

CITY           SKY/WX    TMP DP  RH WIND       PRES   REMARKS
AMES           TSTM      70  70 100 W10       30.06R
ANKENY *       LGT RAIN  70  66  88 N7G23     30.04S
BOONE *        RAIN      70  66  88 SW9       30.07R
CHARITON *     CLOUDY    70  64  83 SE10      29.99F
DES MOINES     TSTM      70  67  90 NW14      30.04R
GRINNELL*      CLOUDY    68  65  92 E6        30.01F
KNOXVILLE *    CLOUDY    70  66  88 SE6       29.98F
MARSHALLTOWN   LGT RAIN  69  68  96 CALM      30.01S
NEWTON *       CLOUDY    70  66  88 NE6       30.00F
PELLA *        CLOUDY    69  66  92 S5        30.01S
PERRY *        RAIN      68  67  98 NE8       30.06F
$$

IAZ004>006-015-016-023>025-035-036-210900-
   NORTH CENTRAL IOWA

CITY           SKY/WX    TMP DP  RH WIND       PRES   REMARKS
ALGONA *       LGT RAIN  70  70 100 S8        30.05R
CLARION *      CLOUDY    70  70 100 SW5       30.05R
ESTHERVILLE    CLOUDY    69  69 100 SE12G17   30.03R
FORT DODGE *   CLOUDY    70  66  88 SE5       30.03F
MASON CITY     CLOUDY    69  66  90 SW12      30.06R
FOREST CITY *  CLOUDY    70  68  94 S6        30.04R
WEBSTER CITY * CLOUDY    70  68  94 S8        30.02S
IOWA FALLS *   LGT RAIN  70  68  93 W5        30.07R
$$

IAZ007>011-017>019-026>030-037>042-050>054-066-210900-
   NORTHEAST IOWA

CITY           SKY/WX    TMP DP  RH WIND       PRES   REMARKS
CEDAR RAPIDS   CLOUDY    66  66 100 CALM      30.01S
CHARLES CITY * CLOUDY    68  68 100 S5        30.03R
CLINTON *      CLOUDY    65  64  97 NE6       30.02S FOG
DECORAH *      CLOUDY    66  64  94 S3        30.02R
DUBUQUE        CLOUDY    64  63  96 MISG      30.02F FOG
MONTICELLO *   CLOUDY    61  61 100 CALM      30.02S FOG
OELWEIN *      CLOUDY    66  64  94 S5        30.04R
WATERLOO       CLOUDY    69  66  90 CALM      30.01S
$$

IAZ064-065-067-068-078-210900-
   EAST CENTRAL IOWA

CITY           SKY/WX    TMP DP  RH WIND       PRES   REMARKS
DAVENPORT      CLOUDY    63  62  97 SE3       30.04R FOG
IOWA CITY      CLOUDY    69  67  93 CALM      30.01F
MT. PLEASANT * CLOUDY    64  64 100 S5        30.03S
MUSCATINE *    CLOUDY    66  64  94 S3        30.01S
QUAD CITIES    CLOUDY    66  64  93 CALM      30.01S FOG
$$

IAZ062-063-075>077-085>089-095>099-210900-
   SOUTHEAST IOWA

CITY           SKY/WX    TMP DP  RH WIND       PRES   REMARKS
BURLINGTON     CLEAR     66  65  96 CALM      30.03S
FAIRFIELD *    CLOUDY    68  64  88 SE3       30.01F
FORT MADISON * CLEAR     66  66 100 CALM      30.04S
KEOKUK *       CLOUDY    68  66  94 CALM      30.02F
OSKALOOSA *      N/A     67  66  97 CALM      30.02S
OTTUMWA        CLOUDY    69  67  93 E5        30.01S
$$

ABBREVIATIONS USED IN REMARKS
   TC - TEMPERATURES IN CELSIUS
  WCI - WIND CHILL INDEX
   HX - HEAT INDEX
  VSB - VISIBILITY
$$





USA.gov is the U.S. government's official web portal to all federal, state and local government web resources and services.